Weather History for KHYS - August, 2012

Change the Weather History Date:

Sunday, August 5, 2012

  Actual Average Record
Temperature  
Mean Temperature 73 °F -  
Max Temperature 93 °F 86 °F 102 °F (2003)
Min Temperature 53 °F 63 °F 53 °F (2012)
Cooling Degree Days 8    
Growing Degree Days 23 (Base 50)    
Moisture  
Dew Point 46 °F    
Average Humidity 43    
Maximum Humidity 77    
Minimum Humidity 17    
Precipitation  
Precipitation 0.00 in - - ()
Sea Level Pressure  
Sea Level Pressure 30.22 in    
Wind  
Wind Speed 5 mph (South)    
Max Wind Speed 15 mph    
Max Gust Speed 18 mph    
Visibility 10 miles    
Events      
Averages and records for this station are not official NWS values.
T = Trace of Precipitation, MM = Missing Value Source: NWS Daily Summary

Daily Weather History Graph

Daily Weather History Graph

Search for Another Location

Airport or City:

Trip Planner

Search our weather history database for the weather conditions in past years. The results will help you decide how hot, cold, wet, or windy it might be!

Date:

Astronomy

Aug. 05, 2012 Rise Set
Actual Time 6:42 AM CDT 8:43 PM CDT
Civil Twilight 6:12 AM CDT 9:12 PM CDT
Nautical Twilight 5:37 AM CDT 9:47 PM CDT
Astronomical Twilight 4:58 AM CDT 10:26 PM CDT
Moon 10:25 PM CDT 10:29 AM CDT
Length of Visible Light 14h 59m
Length of Day
14h 01m
Waning Gibbous, 86% of the Moon is Illuminated
Aug 5
Waning Gibbous
Aug 9
Last Quarter
Aug 17
New
Aug 24
First Quarter
Aug 31
Full

Hourly Weather History & Observations

Time (CDT) Temp. Dew Point Humidity Pressure Visibility Wind Dir Wind Speed Gust Speed Precip Events Conditions
12:15 AM 60.8 °F 46.4 °F 59% 30.16 in 10.0 mi NNW 3.5 mph - N/A   Clear
12:35 AM 60.8 °F 46.4 °F 59% 30.17 in 10.0 mi NW 3.5 mph - N/A   Clear
12:55 AM 59.0 °F 46.4 °F 63% 30.17 in 10.0 mi WNW 3.5 mph - N/A   Clear
1:15 AM 60.8 °F 48.2 °F 63% 30.18 in 10.0 mi WNW 4.6 mph - N/A   Clear
1:35 AM 57.2 °F 46.4 °F 67% 30.18 in 10.0 mi WNW 3.5 mph - N/A   Clear
1:55 AM 59.0 °F 48.2 °F 67% 30.18 in 10.0 mi NNW 4.6 mph - N/A   Clear
2:15 AM 59.0 °F 46.4 °F 63% 30.19 in 10.0 mi North 3.5 mph - N/A   Clear
2:35 AM 59.0 °F 48.2 °F 67% 30.19 in 10.0 mi North 5.8 mph - N/A   Clear
2:55 AM 57.2 °F 46.4 °F 67% 30.20 in 10.0 mi Calm Calm - N/A   Clear
3:15 AM 55.4 °F 46.4 °F 72% 30.21 in 10.0 mi SSW 4.6 mph - N/A   Clear
3:35 AM 55.4 °F 46.4 °F 72% 30.22 in 10.0 mi SSW 3.5 mph - N/A   Clear
3:55 AM 55.4 °F 46.4 °F 72% 30.23 in 10.0 mi SW 3.5 mph - N/A   Clear
4:15 AM 53.6 °F 46.4 °F 77% 30.24 in 10.0 mi WNW 4.6 mph - N/A   Clear
4:35 AM 53.6 °F 46.4 °F 77% 30.25 in 10.0 mi WSW 5.8 mph - N/A   Clear
4:55 AM 53.6 °F 46.4 °F 77% 30.26 in 10.0 mi WSW 4.6 mph - N/A   Clear
5:15 AM 55.4 °F 44.6 °F 67% 30.26 in 10.0 mi WNW 3.5 mph - N/A   Clear
5:35 AM 55.4 °F 46.4 °F 72% 30.27 in 10.0 mi WNW 4.6 mph - N/A   Clear
5:55 AM 57.2 °F 46.4 °F 67% 30.27 in 10.0 mi West 4.6 mph - N/A   Clear
6:15 AM 57.2 °F 46.4 °F 67% 30.28 in 10.0 mi West 4.6 mph - N/A   Clear
6:35 AM 57.2 °F 48.2 °F 72% 30.28 in 10.0 mi WNW 4.6 mph - N/A   Clear
6:55 AM 57.2 °F 48.2 °F 72% 30.29 in 10.0 mi NW 4.6 mph - N/A   Clear
7:15 AM 57.2 °F 48.2 °F 72% 30.29 in 10.0 mi NW 4.6 mph - N/A   Clear
7:35 AM 57.2 °F 46.4 °F 67% 30.29 in 10.0 mi NW 6.9 mph - N/A   Clear
7:55 AM 57.2 °F 48.2 °F 72% 30.29 in 10.0 mi North 4.6 mph - N/A   Clear
8:15 AM 62.6 °F 51.8 °F 68% 30.30 in 10.0 mi NNW 5.8 mph - N/A   Clear
8:35 AM 66.2 °F 51.8 °F 60% 30.30 in 10.0 mi NW 4.6 mph - N/A   Clear
8:55 AM 69.8 °F 51.8 °F 53% 30.29 in 10.0 mi NW 5.8 mph - N/A   Clear
9:15 AM 71.6 °F 51.8 °F 50% 30.29 in 10.0 mi NW 4.6 mph - N/A   Clear
9:35 AM 73.4 °F 51.8 °F 47% 30.29 in 10.0 mi Calm Calm - N/A   Clear
9:55 AM 75.2 °F 50.0 °F 41% 30.29 in 10.0 mi South 4.6 mph - N/A   Clear
10:15 AM 78.8 °F 48.2 °F 34% 30.29 in 10.0 mi SSE 6.9 mph - N/A   Clear
10:35 AM 80.6 °F 48.2 °F 32% 30.29 in 10.0 mi SE 6.9 mph - N/A   Clear
10:55 AM 80.6 °F 48.2 °F 32% 30.28 in 10.0 mi SE 4.6 mph - N/A   Clear
11:15 AM 80.6 °F 48.2 °F 32% 30.28 in 10.0 mi ESE 6.9 mph - N/A   Clear
11:35 AM 82.4 °F 48.2 °F 30% 30.28 in 10.0 mi SSE 5.8 mph - N/A   Clear
11:55 AM 82.4 °F 48.2 °F 30% 30.28 in 10.0 mi SSE 3.5 mph - N/A   Clear
12:15 PM 84.2 °F 48.2 °F 29% 30.27 in 10.0 mi East 5.8 mph - N/A   Clear
12:35 PM 84.2 °F 48.2 °F 29% 30.26 in 10.0 mi East 6.9 mph - N/A   Clear
12:55 PM 84.2 °F 48.2 °F 29% 30.26 in 10.0 mi East 8.1 mph - N/A   Clear
1:15 PM 86.0 °F 48.2 °F 27% 30.25 in 10.0 mi ESE 3.5 mph - N/A   Clear
1:35 PM 87.8 °F 46.4 °F 24% 30.24 in 10.0 mi ENE 6.9 mph - N/A   Clear
1:55 PM 87.8 °F 46.4 °F 24% 30.24 in 10.0 mi East 11.5 mph - N/A   Clear
2:15 PM 87.8 °F 46.4 °F 24% 30.24 in 10.0 mi SE 4.6 mph - N/A   Clear
2:35 PM 89.6 °F 46.4 °F 22% 30.23 in 10.0 mi SE 8.1 mph - N/A   Clear
2:55 PM 89.6 °F 44.6 °F 21% 30.22 in 10.0 mi SSE 3.5 mph - N/A   Clear
3:15 PM 91.4 °F 44.6 °F 20% 30.21 in 10.0 mi SSE 8.1 mph - N/A   Clear
3:35 PM 91.4 °F 44.6 °F 20% 30.20 in 10.0 mi East 4.6 mph - N/A   Clear
3:55 PM 91.4 °F 44.6 °F 20% 30.20 in 10.0 mi South 6.9 mph - N/A   Clear
4:15 PM 91.4 °F 44.6 °F 20% 30.19 in 10.0 mi ESE 8.1 mph - N/A   Clear
4:35 PM 93.2 °F 46.4 °F 20% 30.18 in 10.0 mi South 13.8 mph - N/A   Clear
4:55 PM 93.2 °F 44.6 °F 19% 30.18 in 10.0 mi ESE 13.8 mph 18.4 mph N/A   Clear
5:15 PM 93.2 °F 44.6 °F 19% 30.18 in 10.0 mi SE 13.8 mph - N/A   Clear
5:35 PM 93.2 °F 42.8 °F 17% 30.17 in 10.0 mi ESE 9.2 mph 18.4 mph N/A   Clear
5:55 PM 91.4 °F 44.6 °F 20% 30.16 in 10.0 mi SSE 10.4 mph 17.3 mph N/A   Clear
6:15 PM 91.4 °F 42.8 °F 18% 30.16 in 10.0 mi SSE 12.7 mph - N/A   Clear
6:35 PM 91.4 °F 42.8 °F 18% 30.16 in 10.0 mi ESE 10.4 mph - N/A   Clear
6:55 PM 91.4 °F 42.8 °F 18% 30.15 in 10.0 mi SE 11.5 mph - N/A   Clear
7:15 PM 91.4 °F 42.8 °F 18% 30.15 in 10.0 mi South 15.0 mph - N/A   Clear
7:35 PM 89.6 °F 44.6 °F 21% 30.15 in 10.0 mi South 13.8 mph - N/A   Clear
7:55 PM 89.6 °F 44.6 °F 21% 30.15 in 10.0 mi SSE 9.2 mph - N/A   Clear
8:15 PM 87.8 °F 44.6 °F 22% 30.15 in 10.0 mi SSE 10.4 mph - N/A   Clear
8:35 PM 82.4 °F 44.6 °F 26% 30.15 in 10.0 mi SSE 9.2 mph - N/A   Clear
8:55 PM 80.6 °F 44.6 °F 28% 30.16 in 10.0 mi South 9.2 mph - N/A   Clear
9:15 PM 77.0 °F 42.8 °F 29% 30.16 in 10.0 mi South 6.9 mph - N/A   Clear
9:35 PM 77.0 °F 42.8 °F 29% 30.17 in 10.0 mi South 10.4 mph - N/A   Clear
9:55 PM 75.2 °F 42.8 °F 31% 30.18 in 10.0 mi South 6.9 mph - N/A   Clear
10:15 PM 73.4 °F 42.8 °F 33% 30.19 in 10.0 mi South 6.9 mph - N/A   Clear
10:35 PM 71.6 °F 44.6 °F 38% 30.19 in 10.0 mi SSW 5.8 mph - N/A   Clear
10:55 PM 71.6 °F 44.6 °F 38% 30.19 in 10.0 mi South 5.8 mph - N/A   Clear
11:15 PM 71.6 °F 44.6 °F 38% 30.19 in 10.0 mi South 5.8 mph - N/A   Clear
11:35 PM 71.6 °F 44.6 °F 38% 30.19 in 10.0 mi South 5.8 mph - N/A   Clear
11:55 PM 69.8 °F 44.6 °F 40% 30.20 in 10.0 mi South 5.8 mph - N/A   Clear